GW6489 Weather Reports


time (UTC)temp
C
wind
direction
speed
KPH
gust
KPH
rain 1hr
cm
rain 24hr
cm
rain mn
cm
humidity
%
barometer
mb
20260509234419 21 261 4.8 6.4 0.00 0.00 0.00 50 984.3
20260509233917 21 294 3.2 3.2 0.00 0.00 0.00 50 984.3
20260509233414 21 269 0.0 3.2 0.00 0.00 0.00 49 984.3
20260509232910 21 283 6.4 9.7 0.00 0.00 0.00 48 984.3
20260509232408 21 320 1.6 4.8 0.00 0.00 0.00 48 984.2
20260509231904 21 279 4.8 9.7 0.00 0.00 0.00 47 984.2
20260509231400 21 296 0.0 1.6 0.00 0.00 0.00 46 984.1
20260509230859 21 296 0.0 3.2 0.00 0.00 0.00 46 984.1
20260509230355 22 287 1.6 3.2 0.00 0.00 0.00 45 983.7
20260509225851 22 275 1.6 3.2 0.00 0.00 0.00 45 984.1
20260509225348 22 269 1.6 6.4 0.00 0.00 0.00 44 984.2
20260509224843 22 273 3.2 4.8 0.00 0.00 0.00 43 984.1
20260509224340 22 298 3.2 6.4 0.00 0.00 0.00 43 984.1
20260509223837 22 266 1.6 4.8 0.00 0.00 0.00 44 984.0
20260509223333 22 284 3.2 9.7 0.00 0.00 0.00 44 984.0
20260509222830 22 284 3.2 6.4 0.00 0.00 0.00 43 984.1
20260509222326 22 292 1.6 6.4 0.00 0.00 0.00 43 983.9
20260509221821 22 259 3.2 4.8 0.00 0.00 0.00 41 984.1
20260509221319 22 295 1.6 6.4 0.00 0.00 0.00 42 984.0
20260509220819 22 290 3.2 3.2 0.00 0.00 0.00 43 984.0
20260509220315 23 285 3.2 11.3 0.00 0.00 0.00 40 983.9
20260509215811 23 274 1.6 3.2 0.00 0.00 0.00 42 984.0
20260509215308 -17 0.0 0.0 0.00 0.00 0.00 983.9
20260509214805 -17 0.0 0.0 0.00 0.00 0.00 983.9
20260509214302 -17 0.0 0.0 0.00 0.00 0.00 983.7
20260509213759 -17 0.0 0.0 0.00 0.00 0.00 983.8
20260509213255 -17 0.0 0.0 0.00 0.00 0.00 983.8
20260509212752 -17 0.0 0.0 0.00 0.00 0.00 983.7
20260509212250 -17 0.0 0.0 0.00 0.00 0.00 983.7
20260509211745 23 99 1.6 1.6 0.00 0.00 0.00 38 983.7
20260509211241 23 99 1.6 1.6 0.00 0.00 0.00 38 983.7
20260509210738 23 99 0.0 0.0 0.00 0.00 0.00 39 983.8
20260509210236 23 99 1.6 1.6 0.00 0.00 0.00 38 983.6
20260509205735 23 95 3.2 3.2 0.00 0.00 0.00 38 983.7
20260509205230 23 92 3.2 3.2 0.00 0.00 0.00 40 983.7
20260509204726 23 59 3.2 4.8 0.00 0.00 0.00 40 983.4
20260509204223 23 13 4.8 6.4 0.00 0.00 0.00 40 983.5
20260509203718 23 25 4.8 9.7 0.00 0.00 0.00 40 983.3
20260509203217 23 14 0.0 1.6 0.00 0.00 0.00 40 983.3
20260509202712 22 82 1.6 3.2 0.00 0.00 0.00 40 983.6
20260509202207 23 96 1.6 1.6 0.00 0.00 0.00 40 983.4
20260509201703 23 83 1.6 4.8 0.00 0.00 0.00 39 983.6
20260509201200 23 74 3.2 4.8 0.00 0.00 0.00 38 983.4
20260509200656 23 104 1.6 3.2 0.00 0.00 0.00 38 983.6
20260509200151 23 107 3.2 3.2 0.00 0.00 0.00 38 983.3
20260509195647 23 88 3.2 4.8 0.00 0.00 0.00 38 983.6
20260509195143 23 44 4.8 6.4 0.00 0.00 0.00 40 983.5
20260509194643 23 66 1.6 3.2 0.00 0.00 0.00 40 983.7
20260509194140 23 94 1.6 3.2 0.00 0.00 0.00 41 983.7
20260509193636 23 86 1.6 3.2 0.00 0.00 0.00 42 983.7
20260509193131 23 91 1.6 4.8 0.00 0.00 0.00 41 984.1
20260509192628 23 25 0.0 3.2 0.00 0.00 0.00 41 983.9
20260509192124 23 69 3.2 3.2 0.00 0.00 0.00 42 984.0
20260509191623 23 45 3.2 6.4 0.00 0.00 0.00 42 984.0
20260509191121 23 116 3.2 6.4 0.00 0.00 0.00 42 984.0
20260509190617 23 55 1.6 1.6 0.00 0.00 0.00 41 984.1
20260509190115 22 87 3.2 3.2 0.00 0.00 0.00 42 984.2
20260509185612 22 87 3.2 3.2 0.00 0.00 0.00 42 984.2
20260509185108 22 12 3.2 6.4 0.00 0.00 0.00 42 984.0
20260509184606 22 90 3.2 4.8 0.00 0.00 0.00 43 984.3
20260509184103 22 23 8.0 14.5 0.00 0.00 0.00 43 984.5
20260509183558 23 29 12.9 16.1 0.00 0.00 0.00 42 984.3
20260509183054 23 84 3.2 4.8 0.00 0.00 0.00 40 984.3
20260509182550 23 81 0.0 1.6 0.00 0.00 0.00 41 984.5
20260509182047 22 110 1.6 4.8 0.00 0.00 0.00 41 984.7
20260509181546 22 73 3.2 4.8 0.00 0.00 0.00 44 984.8
20260509181042 22 104 1.6 1.6 0.00 0.00 0.00 45 985.0
20260509180538 21 62 3.2 6.4 0.00 0.00 0.00 50 984.9
20260509180036 20 44 0.0 3.2 0.00 0.00 0.00 49 985.1
20260509175531 20 56 1.6 3.2 0.00 0.00 0.00 49 985.3
20260509175028 21 15 4.8 6.4 0.00 0.00 0.00 45 985.4
20260509174525 21 62 1.6 3.2 0.00 0.00 0.00 46 985.6
20260509174020 21 31 4.8 4.8 0.00 0.00 0.00 46 985.3
20260509173514 21 41 6.4 9.7 0.00 0.00 0.00 43 985.1
20260509173011 20 56 1.6 6.4 0.00 0.00 0.00 46 985.2
20260509172508 20 63 1.6 1.6 0.00 0.00 0.00 44 985.2
20260509172004 21 30 6.4 9.7 0.00 0.00 0.00 45 985.4
20260509171500 20 39 4.8 6.4 0.00 0.00 0.00 45 985.4
20260509170956 20 310 3.2 6.4 0.00 0.00 0.00 44 985.6
20260509170452 21 38 4.8 9.7 0.00 0.00 0.00 46 985.6
20260509165948 21 46 1.6 3.2 0.00 0.00 0.00 45 985.6
20260509165447 21 30 0.0 3.2 0.00 0.00 0.00 45 985.8
20260509164943 21 85 3.2 3.2 0.00 0.00 0.00 44 985.9
20260509164439 21 96 1.6 1.6 0.00 0.00 0.00 44 985.7
20260509163935 21 125 0.0 1.6 0.00 0.00 0.00 42 985.7
20260509163433 21 248 1.6 3.2 0.00 0.00 0.00 41 985.8
20260509162931 21 87 1.6 1.6 0.00 0.00 0.00 42 985.6
20260509162431 21 87 0.0 1.6 0.00 0.00 0.00 42 985.6
20260509161926 21 86 1.6 1.6 0.00 0.00 0.00 41 985.7
20260509161423 21 97 3.2 3.2 0.00 0.00 0.00 39 985.6
20260509160918 21 19 1.6 3.2 0.00 0.00 0.00 40 985.6
20260509160414 21 86 1.6 1.6 0.00 0.00 0.00 39 985.5
20260509155909 21 13 3.2 4.8 0.00 0.00 0.00 41 985.5
20260509155406 21 94 0.0 3.2 0.00 0.00 0.00 41 985.8
20260509154903 20 358 0.0 1.6 0.00 0.00 0.00 42 985.5
20260509154359 20 31 0.0 1.6 0.00 0.00 0.00 45 985.6
20260509153856 20 16 1.6 4.8 0.00 0.00 0.00 46 985.3
20260509153353 21 19 3.2 4.8 0.00 0.00 0.00 46 985.1
20260509152850 21 24 1.6 1.6 0.00 0.00 0.00 45 985.5
20260509152346 21 45 0.0 1.6 0.00 0.00 0.00 46 985.7
20260509151843 21 87 0.0 1.6 0.00 0.00 0.00 44 985.5
20260509151339 21 234 3.2 3.2 0.00 0.00 0.00 46 985.7
20260509150838 21 45 0.0 1.6 0.00 0.00 0.00 45 985.9
20260509150335 20 31 0.0 1.6 0.00 0.00 0.00 47 985.8
20260509145832 20 89 3.2 3.2 0.00 0.00 0.00 47 985.8
20260509145327 20 89 0.0 1.6 0.00 0.00 0.00 48 986.0
20260509144824 20 159 1.6 4.8 0.00 0.00 0.00 48 986.1
20260509144321 20 99 1.6 4.8 0.00 0.00 0.00 48 985.8
20260509143818 20 83 1.6 1.6 0.00 0.00 0.00 48 985.9
20260509143315 20 96 0.0 6.4 0.00 0.00 0.00 47 986.1
20260509142811 19 69 0.0 1.6 0.00 0.00 0.00 47 986.0
20260509142307 19 72 1.6 1.6 0.00 0.00 0.00 49 986.2
20260509141803 18 85 1.6 3.2 0.00 0.00 0.00 48 986.3
20260509141300 18 81 1.6 3.2 0.00 0.00 0.00 50 986.2
20260509140757 18 92 0.0 6.4 0.00 0.00 0.00 50 986.5
20260509140254 17 92 1.6 1.6 0.00 0.00 0.00 51 986.3
20260509135752 17 87 1.6 3.2 0.00 0.00 0.00 50 986.5
20260509135249 17 59 0.0 1.6 0.00 0.00 0.00 51 986.5
20260509134746 17 43 0.0 1.6 0.00 0.00 0.00 52 986.7
20260509134243 17 89 3.2 3.2 0.00 0.00 0.00 51 986.9
20260509133740 16 86 0.0 1.6 0.00 0.00 0.00 53 987.1
20260509133237 16 86 1.6 1.6 0.00 0.00 0.00 52 986.9
20260509132736 16 86 1.6 3.2 0.00 0.00 0.00 52 986.9
20260509132234 16 63 0.0 1.6 0.00 0.00 0.00 53 986.8
20260509131730 16 343 0.0 1.6 0.00 0.00 0.00 53 986.9
20260509131227 16 260 0.0 1.6 0.00 0.00 0.00 51 986.8
20260509130723 16 260 1.6 3.2 0.00 0.00 0.00 52 986.6
20260509130219 15 260 0.0 0.0 0.00 0.00 0.00 54 986.6
20260509125715 15 260 0.0 1.6 0.00 0.00 0.00 58 986.6
20260509125213 15 353 0.0 0.0 0.00 0.00 0.00 55 986.7
20260509124709 15 353 0.0 0.0 0.00 0.00 0.00 58 986.7
20260509124206 14 353 0.0 0.0 0.00 0.00 0.00 58 986.6
20260509123704 14 352 0.0 0.0 0.00 0.00 0.00 58 986.8
20260509123201 14 352 0.0 1.6 0.00 0.00 0.00 59 986.6
20260509122656 14 4 1.6 1.6 0.00 0.00 0.00 59 986.7
20260509122153 14 97 0.0 1.6 0.00 0.00 0.00 60 986.9
20260509121650 14 97 0.0 0.0 0.00 0.00 0.00 59 987.0
20260509121148 13 97 0.0 0.0 0.00 0.00 0.00 61 986.7
20260509120646 13 97 0.0 0.0 0.00 0.00 0.00 60 987.0
20260509120143 13 97 0.0 0.0 0.00 0.00 0.00 61 986.9
20260509115640 13 97 0.0 0.0 0.00 0.00 0.00 55 986.8
20260509115138 13 97 0.0 0.0 0.00 0.00 0.00 55 987.0
20260509114636 13 97 0.0 0.0 0.00 0.00 0.00 55 986.8
20260509114135 13 97 1.6 1.6 0.00 0.00 0.00 54 986.8
20260509113633 13 97 0.0 0.0 0.00 0.00 0.00 55 986.9
20260509113130 13 97 1.6 1.6 0.00 0.00 0.00 54 986.8
20260509112626 13 97 1.6 1.6 0.00 0.00 0.00 53 986.9
20260509112124 13 97 0.0 0.0 0.00 0.00 0.00 54 986.7
20260509111620 13 97 0.0 1.6 0.00 0.00 0.00 54 986.5
20260509111117 13 97 0.0 0.0 0.00 0.00 0.00 55 986.8
20260509110614 13 97 0.0 0.0 0.00 0.00 0.00 56 986.6
20260509110112 13 97 0.0 0.0 0.00 0.00 0.00 55 986.6
20260509105610 13 97 0.0 1.6 0.00 0.00 0.00 54 986.7
20260509105107 13 97 0.0 0.0 0.00 0.00 0.00 54 986.6
20260509104603 13 97 0.0 1.6 0.00 0.00 0.00 54 986.6
20260509104100 13 97 0.0 1.6 0.00 0.00 0.00 55 986.6
20260509103558 13 97 0.0 1.6 0.00 0.00 0.00 54 986.5
20260509103056 13 97 1.6 1.6 0.00 0.00 0.00 54 986.5
20260509102553 13 97 1.6 1.6 0.00 0.00 0.00 54 986.5
20260509102050 13 97 1.6 1.6 0.00 0.00 0.00 54 986.7
20260509101546 13 97 0.0 1.6 0.00 0.00 0.00 55 986.6
20260509101043 13 97 1.6 1.6 0.00 0.00 0.00 55 986.7
20260509100540 13 97 1.6 1.6 0.00 0.00 0.00 56 986.7
20260509100038 13 97 1.6 1.6 0.00 0.00 0.00 55 986.6
20260509095534 13 97 0.0 1.6 0.00 0.00 0.00 56 986.8
20260509095032 13 97 1.6 1.6 0.00 0.00 0.00 55 986.5
20260509094528 13 97 0.0 1.6 0.00 0.00 0.00 55 986.5
20260509094025 13 97 1.6 1.6 0.00 0.00 0.00 54 986.5
20260509093523 13 97 1.6 1.6 0.00 0.00 0.00 54 986.7
20260509093021 13 97 1.6 1.6 0.00 0.00 0.00 53 986.7
20260509092518 13 97 1.6 1.6 0.00 0.00 0.00 53 986.8
20260509092017 13 97 1.6 1.6 0.00 0.00 0.00 53 986.9
20260509091514 13 97 3.2 3.2 0.00 0.00 0.00 52 986.7
20260509091010 13 97 1.6 3.2 0.00 0.00 0.00 52 986.7
20260509090508 13 97 0.0 1.6 0.00 0.00 0.00 52 986.6
20260509090006 13 97 1.6 1.6 0.00 0.00 0.00 52 986.3
20260509085502 13 97 1.6 1.6 0.00 0.00 0.00 52 986.4
20260509084958 13 97 1.6 1.6 0.00 0.00 0.00 52 986.7
20260509084455 13 97 1.6 3.2 0.00 0.00 0.00 52 986.8
20260509083953 13 97 1.6 1.6 0.00 0.00 0.00 52 986.7
20260509083450 13 97 1.6 3.2 0.00 0.00 0.00 51 986.7
20260509082946 13 97 0.0 0.0 0.00 0.00 0.00 51 986.8
20260509082444 13 97 0.0 1.6 0.00 0.00 0.00 50 986.9
20260509081941 13 97 1.6 1.6 0.00 0.00 0.00 51 986.8
20260509081438 13 97 1.6 1.6 0.00 0.00 0.00 51 987.0
20260509080935 13 97 1.6 1.6 0.00 0.00 0.00 50 986.8
20260509080433 13 97 0.0 1.6 0.00 0.00 0.00 50 986.9
20260509075931 13 97 1.6 1.6 0.00 0.00 0.00 51 986.9
20260509075428 13 97 1.6 1.6 0.00 0.00 0.00 51 986.9
20260509074926 13 97 1.6 1.6 0.00 0.00 0.00 51 986.8
20260509074423 13 97 0.0 1.6 0.00 0.00 0.00 51 987.0
20260509073919 13 97 1.6 1.6 0.00 0.00 0.00 51 987.0
20260509073416 13 97 0.0 1.6 0.00 0.00 0.00 51 987.0
20260509072912 13 97 0.0 0.0 0.00 0.00 0.00 51 987.2
20260509072409 13 97 1.6 1.6 0.00 0.00 0.00 51 987.1
20260509071905 13 97 1.6 1.6 0.00 0.00 0.00 51 987.2
20260509071402 13 97 1.6 1.6 0.00 0.00 0.00 51 987.3
20260509070900 13 97 0.0 1.6 0.00 0.00 0.00 52 987.4
20260509070356 13 97 0.0 1.6 0.00 0.00 0.00 52 987.3
20260509065852 13 97 0.0 1.6 0.00 0.00 0.00 52 987.2
20260509065349 13 97 1.6 1.6 0.00 0.00 0.00 52 987.4
20260509064844 13 97 0.0 1.6 0.00 0.00 0.00 53 987.4
20260509064342 13 97 1.6 1.6 0.00 0.00 0.00 52 987.4
20260509063840 13 97 0.0 1.6 0.00 0.00 0.00 52 987.3
20260509063336 13 97 1.6 1.6 0.00 0.00 0.00 51 987.5
20260509062833 13 97 1.6 1.6 0.00 0.00 0.00 51 987.5
20260509062330 13 97 0.0 1.6 0.00 0.00 0.00 51 987.4
20260509061827 13 97 1.6 1.6 0.00 0.00 0.00 50 987.6
20260509061326 13 97 3.2 3.2 0.00 0.00 0.00 50 987.6
20260509060822 -17 0.0 0.0 0.00 0.00 0.00 987.5
20260509060319 13 81 3.2 3.2 0.00 0.00 0.00 50 987.5
20260509055814 13 81 3.2 3.2 0.00 0.00 0.00 50 987.7
20260509055310 13 86 3.2 3.2 0.00 0.00 0.00 50 987.9
20260509054807 13 88 3.2 4.8 0.00 0.00 0.00 51 987.9
20260509054304 13 93 3.2 4.8 0.00 0.00 0.00 51 987.7
20260509053802 13 80 3.2 3.2 0.00 0.00 0.00 50 987.7
20260509053259 14 91 3.2 3.2 0.00 0.00 0.00 51 987.5
20260509052757 -17 0.0 0.0 0.00 0.00 0.00 987.9
20260509052254 14 87 3.2 4.8 0.00 0.00 0.00 51 987.8
20260509051752 14 87 3.2 4.8 0.00 0.00 0.00 51 987.7
20260509051250 14 87 3.2 3.2 0.00 0.00 0.00 50 987.7
20260509050746 14 83 1.6 3.2 0.00 0.00 0.00 50 987.9
20260509050243 14 84 3.2 3.2 0.00 0.00 0.00 50 987.8
20260509045740 -17 0.0 0.0 0.00 0.00 0.00 988.0
20260509045237 -17 0.0 0.0 0.00 0.00 0.00 987.9
20260509044734 14 95 1.6 1.6 0.00 0.00 0.00 51 987.9
20260509044232 14 95 1.6 1.6 0.00 0.00 0.00 51 987.8
20260509043728 14 95 1.6 1.6 0.00 0.00 0.00 51 987.6
20260509043224 15 95 1.6 1.6 0.00 0.00 0.00 50 987.8
20260509042720 15 95 1.6 1.6 0.00 0.00 0.00 50 987.8
20260509042217 15 95 1.6 3.2 0.00 0.00 0.00 50 987.5
20260509041714 14 88 3.2 3.2 0.00 0.00 0.00 51 987.6
20260509041210 -17 0.0 0.0 0.00 0.00 0.00 987.7
20260509040709 -17 0.0 0.0 0.00 0.00 0.00 987.8
20260509040205 -17 0.0 0.0 0.00 0.00 0.00 987.8
20260509035702 -17 0.0 0.0 0.00 0.00 0.00 987.6
20260509035159 -17 0.0 0.0 0.00 0.00 0.00 987.7
20260509034656 15 84 3.2 4.8 0.00 0.00 0.00 50 987.7
20260509034153 15 84 3.2 4.8 0.00 0.00 0.00 50 987.7
20260509033650 15 87 3.2 3.2 0.00 0.00 0.00 50 987.7
20260509033147 15 93 3.2 3.2 0.00 0.00 0.00 50 988.0
20260509032645 15 93 3.2 3.2 0.00 0.00 0.00 50 988.0
20260509032141 -17 0.0 0.0 0.00 0.00 0.00 987.8
20260509031639 -17 0.0 0.0 0.00 0.00 0.00 987.8
20260509031136 -17 0.0 0.0 0.00 0.00 0.00 987.7
20260509030635 -17 0.0 0.0 0.00 0.00 0.00 987.7
20260509030132 -17 0.0 0.0 0.00 0.00 0.00 987.8
20260509025627 -17 0.0 0.0 0.00 0.00 0.00 987.7
20260509025123 -17 0.0 0.0 0.00 0.00 0.00 987.8
20260509024619 -17 0.0 0.0 0.00 0.00 0.00 987.9
20260509024115 -17 0.0 0.0 0.00 0.00 0.00 987.9
20260509023613 -17 0.0 0.0 0.00 0.00 0.00 988.1
20260509023110 -17 0.0 0.0 0.00 0.00 0.00 987.8
20260509022606 -17 0.0 0.0 0.00 0.00 0.00 988.0
20260509022104 -17 0.0 0.0 0.00 0.00 0.00 987.9
20260509021601 -17 0.0 0.0 0.00 0.00 0.00 988.0
20260509021058 -17 0.0 0.0 0.00 0.00 0.00 987.8
20260509020557 -17 0.0 0.0 0.00 0.00 0.00 987.8
20260509020053 -17 0.0 0.0 0.00 0.00 0.00 987.7
20260509015552 16 93 1.6 1.6 0.00 0.00 0.00 46 987.6
20260509015049 16 93 1.6 1.6 0.00 0.00 0.00 46 987.5
20260509014545 16 93 1.6 1.6 0.00 0.00 0.00 45 987.7
20260509014042 16 93 1.6 1.6 0.00 0.00 0.00 45 987.5
20260509013539 -17 0.0 0.0 0.00 0.00 0.00 987.4
20260509013034 17 86 3.2 4.8 0.00 0.00 0.00 43 987.5
20260509012531 17 86 3.2 4.8 0.00 0.00 0.00 43 987.3
20260509012028 17 79 1.6 3.2 0.00 0.00 0.00 44 987.3
20260509011526 17 79 1.6 3.2 0.00 0.00 0.00 44 987.5
20260509011023 -17 0.0 0.0 0.00 0.00 0.00 987.4
20260509010521 17 93 1.6 1.6 0.00 0.00 0.00 43 987.3
20260509010017 17 93 1.6 1.6 0.00 0.00 0.00 43 987.2
20260509005515 17 94 1.6 1.6 0.00 0.00 0.00 43 987.1
20260509005015 17 94 1.6 1.6 0.00 0.00 0.00 43 987.1
20260509004512 -17 0.0 0.0 0.00 0.00 0.00 987.2
20260509004009 -17 0.0 0.0 0.00 0.00 0.00 987.0
20260509003508 -17 0.0 0.0 0.00 0.00 0.00 987.2
20260509003004 -17 0.0 0.0 0.00 0.00 0.00 987.1
20260509002502 -17 0.0 0.0 0.00 0.00 0.00 987.2
20260509001959 -17 0.0 0.0 0.00 0.00 0.00 987.0
20260509001455 -17 0.0 0.0 0.00 0.00 0.00 986.8
20260509000952 -17 0.0 0.0 0.00 0.00 0.00 986.8
20260509000451 -17 0.0 0.0 0.00 0.00 0.00 986.8
20260508235946 -17 0.0 0.0 0.00 0.00 0.00 986.7
20260508235444 -17 0.0 0.0 0.00 0.00 0.00 986.8
20260508234940 19 68 0.0 1.6 0.00 0.00 0.00 36 986.7